Flag for Germany Weather past 2 weeks in Trier, Rhineland-Palatinate, Germany

Now
56 °F

Scattered clouds.


Feels Like: 56 °F
Forecast: 37 / 62 °F
Wind: 3 mph from Northeast

Location: Trier-Petrisberg

Current Time: Sep 23, 2014 at 7:28:24 PM

Latest Report: Sep 23, 2014 at 7:00 PM


Visibility: 22 mi

Pressure: 30.08 "Hg

Humidity: 67%

Dew point: 45 °F

Location of TrierLocation

Historic Weather in Trier — Graph

°F

Trier temperature yesterday

Maximum temperature yesterday: 59 °F (at 4:00 PM)
Minimum temperature yesterday: 46 °F (at 11:00 PM)
Average temperature yesterday: 53 °F

Past Weeks' High & Low Weather Summary

 TemperatureHumidityPressure
High80 °F (Sep 18, 2:00 PM)100% (Sep 15, 2:00 AM)30.24 "Hg (Sep 15, 2:00 AM)
Low42 °F (Sep 23, 8:00 AM)49% (Sep 12, 4:00 PM)29.80 "Hg (Sep 18, 4:00 PM)
Average60 °F83%30.04 "Hg
* Reported Sep 8 6:00 PM — Sep 23 6:00 PM, Trier, Weather by CustomWeather, © 2014

Note: Actual official high and low records may vary slightly from our data, if they occured in-between our weather recording intervals... More about our weather records

Advertising

Trier weather history for previous 24 hours

 ConditionsComfort  
Time TempWeatherWind HumidityBarometerVisibility
6:00 PM
Sep 23
61 °FPassing clouds.3 mph59%30.07 "Hg22 mi
5:00 PM62 °FPassing clouds.3 mph59%30.09 "Hg19 mi
4:00 PM61 °FPassing clouds.5 mph61%30.11 "Hg19 mi
3:00 PM60 °FPassing clouds.3 mph66%30.13 "Hg19 mi
2:00 PM59 °FPassing clouds.3 mph67%30.15 "Hg16 mi
1:00 PM56 °FPassing clouds.5 mph82%30.18 "Hg8 mi
12:00 PM49 °FFog.2 mph99%30.21 "Hg4 mi
11:00 AM45 °FFog.2 mph100%30.24 "Hg0 mi
10:00 AM45 °FFog.1 mph100%30.24 "Hg0 mi
9:00 AM43 °FFog.1 mph100%30.23 "Hg0 mi
8:00 AM42 °FFog.No wind100%30.24 "Hg0 mi
7:00 AM43 °FFog.1 mph100%30.23 "Hg0 mi
6:00 AM44 °FFog.1 mph100%30.23 "Hg0 mi
5:00 AM42 °FLow clouds.1 mph100%30.21 "Hg0 mi
4:00 AM44 °FLow clouds.1 mph100%30.21 "Hg0 mi
3:00 AM44 °FLow clouds.1 mph100%30.22 "Hg0 mi
2:00 AM46 °FLow clouds.1 mph99%30.22 "Hg0 mi
1:00 AM46 °FFog.1 mph99%30.22 "Hg2 mi
12:00 AM45 °FFog.1 mph97%30.22 "Hg3 mi
11:00 PM
Sep 22
46 °FFog.1 mph96%30.22 "Hg4 mi
10:00 PM48 °FFog.1 mph91%30.21 "Hg4 mi
9:00 PM51 °FPassing clouds.1 mph88%30.19 "Hg7 mi
8:00 PM53 °FPassing clouds.2 mph82%30.17 "Hg9 mi
7:00 PM55 °FPartly sunny.3 mph79%30.15 "Hg12 mi
Weather by CustomWeather, © 2014

See weather overviewHow to use our weather pages